Location: Melbourne
(37.8170°S, 144.9670°E)
Time: 17:29:09
(UTC+10:00)

CZ-3 R/B - Visible Passes

Search period start: 23 August 2014 00:00
Search period end: 02 September 2014 00:00
Orbit: 211 x 15066 km, 28.5° (Epoch: 22 August)

Date Brightness Start Highest point End Pass type
(mag) Time Alt. Az. Time Alt. Az. Time Alt. Az.
23 Aug 7.6 00:00:00 23° E 23:59:45 23° E 01:15:01 10° ESE visible
23 Aug 6.5 03:52:42 30° NW 05:40:50 75° NNE 06:55:17 10° E visible
23 Aug 7.0 22:16:01 10° ENE 22:31:23 10° E 22:49:44 10° E visible
24 Aug 6.4 02:49:22 42° NNW 04:02:53 69° NNE 05:43:56 10° E visible
25 Aug 6.4 01:45:39 47° N 02:31:20 58° NE 04:29:36 10° E visible
25 Aug 6.8 06:32:05 10° W 09:02:14 66° NNW 09:32:23 10° NE visible
26 Aug 6.5 00:41:35 42° NE 01:07:55 45° ENE 03:10:30 10° ESE visible
26 Aug 6.7 05:16:45 16° WNW 07:39:14 74° NNW 08:23:54 10° ENE visible
26 Aug 6.7 23:37:10 30° ENE 23:51:11 31° ENE 01:42:37 10° ESE visible
27 Aug 6.5 04:12:15 30° WNW 06:04:55 76° N 07:13:52 10° ENE visible
27 Aug 6.9 22:32:23 17° ENE 22:39:01 17° ENE 23:52:45 10° ESE visible
28 Aug 6.4 03:07:24 44° NW 04:22:34 73° NNE 06:01:49 10° E visible
29 Aug 6.3 02:02:13 52° N 02:45:06 64° NE 04:46:54 10° E visible
30 Aug 6.4 00:56:41 49° NNE 01:17:22 52° NE 03:27:35 10° E visible
30 Aug 6.7 05:31:33 14° W 07:55:19 71° NNW 08:37:57 10° NE visible
30 Aug 6.6 23:50:49 38° ENE 23:57:45 38° ENE 02:00:41 10° ESE visible
31 Aug 6.5 04:25:36 29° WNW 06:21:39 76° N 07:27:04 10° ENE visible
31 Aug 6.8 22:44:37 24° ENE 22:44:37 24° ENE 00:17:53 10° ESE visible
01 Sep 6.3 03:19:20 44° NW 04:36:41 75° NNE 06:14:10 10° ENE visible
